Location: Newark
(45.8667°N, 9.7333°E)
Time: 15:19:19
(UTC+00:00)

ITAMSAT 1 - Pass Details

Date: 21 February 2020
Orbit: 784 x 796 km, 98.9° (Epoch: 04 April)

Event Time Altitude Azimuth Distance (km) Brightness Sun altitude
Rises 05:09:32 0° 15° (NNE) 3,307 11.0 -12.1°
Reaches altitude 10° 05:11:52 10° 16° (NNE) 2,374 10.3 -11.7°
Maximum altitude 05:17:08 82° 105° (ESE) 810 7.8 -10.7°
Drops below altitude 10° 05:22:21 10° 193° (SSW) 2,360 10.1 -9.8°
Sets 05:24:40 0° 194° (SSW) 3,286 10.8 -9.4°
